Regional Weather Roundup
Issued by NWS

Home | Current Version | Previous Version | Graphics & Text | Print | Product List | Glossary On
Versions: 1 2 3 4 5 6 7 8 9 10 11 12 13 14 15 16 17 18 19 20 21 22 23 24 25 26 27 28 29
000
ASUS45 KGTF 021310
RWRMT
MONTANA HOURLY WEATHER ROUNDUP
NATIONAL WEATHER SERVICE GREAT FALLS MT
700 AM MDT SAT MAY 02 2015

NOTE: "FAIR" INDICATES FEW OR NO CLOUDS BELOW 12000 FEET WITH NO
SIGNIFICANT WEATHER AND/OR OBSTRUCTIONS TO VISIBILITY.

MTZ001>007-043-021400-
WEST OF THE DIVIDE

CITY           SKY/WX    TMP DP  RH WIND       PRES   REMARKS
KALISPELL      MOSUNNY   40  33  76 SW7       29.77R
MISSOULA       PTCLDY    34  29  82 W5        29.86R
BUTTE          PTCLDY    35  27  72 VRB5      29.89S
DEER LODGE       N/A     46  25  42 S6        29.90R
EUREKA           N/A     43  34  70 SW6       29.83R
LIBBY            N/A     41  30  65 CALM      29.81R
$$

MTZ008-052>055-021400-
SOUTHWEST MONTANA

CITY           SKY/WX    TMP DP  RH WIND       PRES   REMARKS
BOZEMAN        CLOUDY    45  32  60 VRB3      29.85S
DILLON         PTCLDY    45  23  42 SW12      29.89R
$$

MTZ009-010-012-014-046-048-049-054-021400-
EAST SLOPES AND CENTRAL MONTANA

CITY           SKY/WX    TMP DP  RH WIND       PRES   REMARKS
CUT BANK       CLEAR     35  31  85 NW14      29.78R WCI  26
GREAT FALLS    PTCLDY    50  25  37 SW13      29.75R
MALMSTROM AFB  PTCLDY    55  23  28 SW10      29.75S
HELENA         PTCLDY    43  25  49 W3        29.82S
$$

MTZ011-013-016-021-045-047-050-051-021400-
NORTH CENTRAL MONTANA

CITY           SKY/WX    TMP DP  RH WIND       PRES   REMARKS
HAVRE          PTCLDY    38  31  76 CALM      29.75R
LEWISTOWN      CLOUDY    57  27  31 W16       29.78R
CHINOOK          N/A     43  30  61 CALM      29.76R
FORT BENTON      N/A     52  23  32 CALM      29.75S
$$

MTZ017>020-022>042-056>058-061-062-021400-
EASTERN PLAINS

CITY           SKY/WX    TMP DP  RH WIND       PRES   REMARKS
BAKER          SUNNY     44  37  76 CALM      29.72S
BILLINGS       MOCLDY    51  30  44 SW16      29.80S
GLASGOW        PTSUNNY   47  37  68 N5        29.68R
JORDAN           N/A     40  35  83 NW6       29.71R
LIVINGSTON     PTCLDY    44  28  53 NW10      29.85S
MILES CITY     MOSUNNY   44  34  67 S7        29.72R
SIDNEY         PTSUNNY   48  36  61 CALM      29.69R
WOLF POINT     PTSUNNY   42  36  79 W3        29.68S
BIG TIMBER       N/A     46  27  46 SW7       29.85S
FORSYTH          N/A     46  36  66 SW5       29.74R
PLENTYWOOD       N/A     50  30  46 NW5       29.67S
POPLAR           N/A     46  36  66 NW3       29.68S
$$

REGIONAL REPORTS...DAKOTAS

CITY           SKY/WX    TMP DP  RH WIND       PRES   REMARKS
WILLISTON      PTSUNNY   47  35  63 CALM      29.66S
MINOT          PTSUNNY   58  34  40 S12G17    29.65F
DICKINSON      PTSUNNY   50  37  61 S10       29.68F
BEACH          FAIR      48  39  71 S7        29.71S
CROSBY         FAIR      50  36  57 SW10      29.65R
WATFORD CITY   FAIR      46  36  66 CALM      29.65S
BISMARCK       MOSUNNY   49  36  61 E5        29.74F
GRAND FORKS    MOSUNNY   53  37  54 S9        29.74S
FARGO          MOSUNNY   54  36  50 S9        29.80S
BUFFALO SD       N/A     48  36  63 S5        29.69S
RAPID CITY     SUNNY     48  43  82 E3        29.80S
$$

REGIONAL REPORTS...WYOMING/IDAHO/WASHINGTON

CITY           SKY/WX    TMP DP  RH WIND       PRES   REMARKS
GILLETTE       PTSUNNY   55  32  41 SW9       29.82S
SHERIDAN       CLOUDY    49  32  52 S6        29.80S
BUFFALO WY     PTSUNNY   59  20  22 CALM      29.86R
CODY           MOCLDY    45  25  45 N3        29.88S
YELLOWSTONE LA   N/A     26  21  81 CALM      30.06R
IDAHO FALLS    PTCLDY    43  32  65 E5        29.95R
SALMON         PTCLDY    37  27  65 CALM      29.90R
BOISE          PTCLDY    49  25  39 CALM      29.86S
SPOKANE        MOCLDY    41  24  51 W3        29.89R
$$

REGIONAL REPORTS...ALBERTA

CITY           SKY/WX    TMP DP  RH WIND       PRES   REMARKS
EDMONTON       PTCLDY    37  25  60 W12       29.79R WCI  30
CALGARY        MOCLDY    37  32  81 N14G20    29.83R WCI  29
LETHBRIDGE     LGT RAIN  41  37  87 N5        29.83R
MEDICINE HAT   LGT RAIN  45  41  87 NW8       29.79R
$$

REGIONAL REPORTS...SASKATCHEWAN

CITY           SKY/WX    TMP DP  RH WIND       PRES   REMARKS
SWIFT CURRENT  PTSUNNY   43  37  81 W13       29.73R
REGINA         PTSUNNY   45  39  81 W7        29.67R
$$



USA.gov is the U.S. government's official web portal to all federal, state and local government web resources and services.